| time (UTC) | temp F | wind direction | speed MPH | gust MPH | rain 1hr in | rain 24hr in | rain mn in | humidity % | barometer mb |
| 20260905182307 | 53 | 226 | 4.0 | 9.0 | 0.00 | 0.12 | 0.08 | 85 | 1017.0 |
| 20260905181306 | 53 | 247 | 1.0 | 6.0 | 0.00 | 0.12 | 0.08 | 86 | 1016.8 |
| 20260905180806 | 53 | 269 | 3.0 | 9.0 | 0.00 | 0.13 | 0.08 | 86 | 1016.7 |
| 20260905175807 | 53 | 227 | 5.0 | 12.0 | 0.00 | 0.16 | 0.08 | 85 | 1016.5 |
| 20260905174808 | 54 | 202 | 3.0 | 10.0 | 0.00 | 0.18 | 0.08 | 83 | 1016.4 |
| 20260905174307 | 54 | 253 | 5.0 | 12.0 | 0.00 | 0.18 | 0.08 | 83 | 1016.1 |
| 20260905173807 | 54 | 250 | 4.0 | 12.0 | 0.00 | 0.18 | 0.08 | 82 | 1016.2 |
| 20260905173307 | 54 | 112 | 5.0 | 9.0 | 0.00 | 0.18 | 0.08 | 82 | 1016.0 |
| 20260905172807 | 54 | 249 | 3.0 | 15.0 | 0.00 | 0.18 | 0.08 | 82 | 1015.9 |
| 20260905172307 | 54 | 288 | 3.0 | 10.0 | 0.00 | 0.18 | 0.08 | 82 | 1015.9 |
| 20260905171306 | 54 | 271 | 2.0 | 10.0 | 0.00 | 0.18 | 0.08 | 82 | 1015.8 |
| 20260905170308 | 54 | 270 | 3.0 | 8.0 | 0.00 | 0.18 | 0.08 | 82 | 1015.5 |
| 20260905165807 | 54 | 249 | 3.0 | 7.0 | 0.00 | 0.19 | 0.08 | 82 | 1015.6 |
| 20260905165307 | 54 | 226 | 2.0 | 7.0 | 0.00 | 0.20 | 0.08 | 82 | 1015.7 |
| 20260905164806 | 54 | 311 | 2.0 | 7.0 | 0.00 | 0.21 | 0.08 | 82 | 1015.4 |
| 20260905164307 | 54 | 269 | 3.0 | 10.0 | 0.00 | 0.21 | 0.08 | 82 | 1015.4 |
| 20260905163807 | 54 | 220 | 3.0 | 9.0 | 0.00 | 0.21 | 0.08 | 82 | 1015.5 |
| 20260905163306 | 54 | 315 | 2.0 | 9.0 | 0.00 | 0.21 | 0.08 | 83 | 1015.2 |
| 20260905162807 | 54 | 268 | 3.0 | 7.0 | 0.00 | 0.21 | 0.08 | 83 | 1015.2 |
| 20260905162306 | 54 | 270 | 3.0 | 8.0 | 0.00 | 0.21 | 0.08 | 83 | 1015.2 |
| 20260905161806 | 54 | 248 | 2.0 | 8.0 | 0.00 | 0.21 | 0.08 | 83 | 1015.1 |
| 20260905161308 | 54 | 249 | 3.0 | 8.0 | 0.00 | 0.21 | 0.08 | 83 | 1015.0 |
| 20260905160806 | 54 | 249 | 2.0 | 9.0 | 0.00 | 0.22 | 0.08 | 83 | 1014.9 |
| 20260905160307 | 54 | 292 | 3.0 | 7.0 | 0.00 | 0.22 | 0.08 | 83 | 1014.8 |
| 20260905155306 | 54 | 271 | 3.0 | 10.0 | 0.00 | 0.23 | 0.08 | 83 | 1015.0 |
| 20260905154807 | 54 | 268 | 5.0 | 12.0 | 0.00 | 0.23 | 0.08 | 83 | 1014.8 |
| 20260905153807 | 54 | 313 | 3.0 | 12.0 | 0.00 | 0.23 | 0.08 | 83 | 1014.7 |
| 20260905153306 | 54 | 270 | 2.0 | 9.0 | 0.00 | 0.24 | 0.08 | 83 | 1014.3 |
| 20260905152306 | 54 | 266 | 3.0 | 9.0 | 0.00 | 0.26 | 0.08 | 83 | 1014.2 |
| 20260905151806 | 54 | 336 | 4.0 | 10.0 | 0.00 | 0.26 | 0.08 | 83 | 1014.1 |
| 20260905151307 | 54 | 292 | 5.0 | 10.0 | 0.00 | 0.26 | 0.08 | 83 | 1014.1 |
| 20260905150807 | 54 | 227 | 4.0 | 10.0 | 0.00 | 0.26 | 0.08 | 82 | 1014.1 |
| 20260905150307 | 54 | 269 | 3.0 | 8.0 | 0.00 | 0.26 | 0.08 | 82 | 1013.9 |
| 20260905145807 | 54 | 312 | 2.0 | 12.0 | 0.00 | 0.26 | 0.08 | 81 | 1013.7 |
| 20260905145307 | 54 | 271 | 5.0 | 12.0 | 0.00 | 0.26 | 0.08 | 81 | 1013.5 |
| 20260905144307 | 55 | 267 | 3.0 | 10.0 | 0.00 | 0.26 | 0.08 | 81 | 1013.3 |
| 20260905141806 | 55 | 290 | 4.0 | 10.0 | 0.00 | 0.26 | 0.08 | 80 | 1012.9 |
| 20260905141306 | 55 | 312 | 4.0 | 10.0 | 0.00 | 0.26 | 0.08 | 81 | 1012.8 |
| 20260905140808 | 55 | 268 | 5.0 | 8.0 | 0.00 | 0.26 | 0.08 | 81 | 1013.0 |
| 20260905140307 | 55 | 250 | 5.0 | 8.0 | 0.00 | 0.26 | 0.08 | 81 | 1012.8 |
| 20260905135809 | 55 | 313 | 3.0 | 8.0 | 0.00 | 0.27 | 0.08 | 81 | 1012.7 |
| 20260905135308 | 54 | 116 | 5.0 | 15.0 | 0.00 | 0.27 | 0.08 | 81 | 1012.6 |
| 20260905134806 | 54 | 269 | 3.0 | 9.0 | 0.00 | 0.28 | 0.08 | 82 | 1012.7 |
| 20260905134306 | 54 | 248 | 5.0 | 8.0 | 0.00 | 0.29 | 0.08 | 82 | 1012.6 |
| 20260905133807 | 54 | 226 | 3.0 | 7.0 | 0.00 | 0.29 | 0.08 | 82 | 1012.5 |
| 20260905133306 | 54 | 249 | 2.0 | 7.0 | 0.00 | 0.29 | 0.08 | 81 | 1012.5 |
| 20260905132806 | 54 | 335 | 2.0 | 7.0 | 0.00 | 0.29 | 0.08 | 80 | 1012.3 |
| 20260905131806 | 54 | 204 | 3.0 | 7.0 | 0.00 | 0.29 | 0.08 | 81 | 1012.1 |
| 20260905131306 | 54 | 248 | 2.0 | 7.0 | 0.00 | 0.29 | 0.08 | 81 | 1011.9 |
| 20260905130806 | 54 | 250 | 3.0 | 8.0 | 0.00 | 0.29 | 0.08 | 81 | 1011.8 |
| 20260905130306 | 54 | 292 | 5.0 | 8.0 | 0.00 | 0.29 | 0.08 | 81 | 1011.7 |
| 20260905125807 | 54 | 102 | 2.0 | 8.0 | 0.00 | 0.29 | 0.08 | 81 | 1011.6 |
| 20260905125306 | 54 | 227 | 2.0 | 7.0 | 0.00 | 0.29 | 0.08 | 81 | 1011.5 |
| 20260905124806 | 54 | 246 | 2.0 | 6.0 | 0.00 | 0.29 | 0.08 | 81 | 1011.4 |
| 20260905124307 | 54 | 296 | 3.0 | 5.0 | 0.00 | 0.29 | 0.08 | 80 | 1011.5 |
| 20260905123806 | 54 | 14 | 2.0 | 12.0 | 0.00 | 0.29 | 0.08 | 80 | 1011.4 |
| 20260905123306 | 54 | 271 | 3.0 | 12.0 | 0.00 | 0.29 | 0.08 | 79 | 1011.2 |
| 20260905122807 | 54 | 271 | 3.0 | 9.0 | 0.00 | 0.29 | 0.08 | 78 | 1011.2 |
| 20260905122307 | 55 | 223 | 2.0 | 8.0 | 0.00 | 0.29 | 0.08 | 78 | 1010.9 |
| 20260905121806 | 54 | 272 | 3.0 | 8.0 | 0.00 | 0.29 | 0.08 | 78 | 1010.8 |
| 20260905121306 | 54 | 313 | 3.0 | 6.0 | 0.00 | 0.29 | 0.08 | 77 | 1010.9 |
| 20260905120807 | 54 | 357 | 2.0 | 5.0 | 0.00 | 0.29 | 0.08 | 77 | 1010.5 |
| 20260905120306 | 54 | 268 | 3.0 | 8.0 | 0.00 | 0.29 | 0.08 | 77 | 1010.6 |
| 20260905115806 | 54 | 159 | 2.0 | 7.0 | 0.00 | 0.29 | 0.08 | 77 | 1010.6 |
| 20260905115306 | 54 | 315 | 1.0 | 9.0 | 0.00 | 0.29 | 0.08 | 77 | 1010.4 |
| 20260905114806 | 54 | 249 | 3.0 | 9.0 | 0.00 | 0.29 | 0.08 | 76 | 1010.4 |
| 20260905114306 | 54 | 0 | 3.0 | 7.0 | 0.00 | 0.29 | 0.08 | 76 | 1010.4 |
| 20260905113806 | 54 | 251 | 2.0 | 6.0 | 0.00 | 0.30 | 0.08 | 76 | 1010.4 |
| 20260905113306 | 54 | 312 | 2.0 | 7.0 | 0.00 | 0.30 | 0.08 | 76 | 1010.2 |
| 20260905112807 | 54 | 291 | 2.0 | 6.0 | 0.00 | 0.30 | 0.08 | 76 | 1010.3 |
| 20260905112308 | 54 | 294 | 2.0 | 6.0 | 0.00 | 0.30 | 0.08 | 76 | 1010.2 |
| 20260905111806 | 54 | 271 | 2.0 | 5.0 | 0.00 | 0.30 | 0.08 | 76 | 1010.1 |
| 20260905111308 | 54 | 42 | 2.0 | 7.0 | 0.00 | 0.30 | 0.08 | 76 | 1010.1 |
| 20260905110807 | 54 | 290 | 2.0 | 6.0 | 0.00 | 0.30 | 0.08 | 76 | 1010.1 |
| 20260905110308 | 54 | 292 | 3.0 | 8.0 | 0.00 | 0.30 | 0.08 | 76 | 1009.9 |
| 20260905105307 | 54 | 203 | 5.0 | 10.0 | 0.00 | 0.30 | 0.08 | 76 | 1009.8 |
| 20260905104808 | 54 | 226 | 3.0 | 9.0 | 0.00 | 0.30 | 0.08 | 75 | 1009.4 |
| 20260905104307 | 54 | 315 | 3.0 | 7.0 | 0.00 | 0.30 | 0.08 | 75 | 1009.5 |
| 20260905103807 | 54 | 248 | 2.0 | 8.0 | 0.00 | 0.30 | 0.08 | 75 | 1009.3 |
| 20260905103306 | 54 | 316 | 2.0 | 6.0 | 0.00 | 0.30 | 0.08 | 74 | 1009.2 |
| 20260905102806 | 54 | 112 | 2.0 | 7.0 | 0.00 | 0.30 | 0.08 | 73 | 1009.0 |
| 20260905102306 | 55 | 294 | 3.0 | 7.0 | 0.00 | 0.30 | 0.08 | 73 | 1008.8 |
| 20260905101807 | 55 | 268 | 3.0 | 7.0 | 0.00 | 0.31 | 0.08 | 73 | 1008.9 |
| 20260905101306 | 55 | 313 | 2.0 | 7.0 | 0.00 | 0.31 | 0.08 | 73 | 1008.8 |
| 20260905100807 | 54 | 315 | 3.0 | 6.0 | 0.00 | 0.31 | 0.08 | 74 | 1009.2 |
| 20260905100307 | 54 | 18 | 2.0 | 6.0 | 0.00 | 0.32 | 0.08 | 74 | 1008.8 |
| 20260905095806 | 54 | 272 | 2.0 | 7.0 | 0.00 | 0.32 | 0.08 | 74 | 1009.0 |
| 20260905094806 | 54 | 336 | 3.0 | 9.0 | 0.00 | 0.32 | 0.08 | 73 | 1008.3 |
| 20260905094306 | 54 | 248 | 4.0 | 10.0 | 0.00 | 0.32 | 0.08 | 73 | 1008.2 |
| 20260905093307 | 53 | 314 | 1.0 | 3.0 | 0.00 | 0.32 | 0.08 | 75 | 1008.3 |
| 20260905092807 | 53 | 205 | 1.0 | 5.0 | 0.00 | 0.32 | 0.08 | 75 | 1008.2 |
| 20260905091807 | 53 | 267 | 2.0 | 5.0 | 0.00 | 0.32 | 0.08 | 75 | 1007.3 |
| 20260905091306 | 53 | 311 | 2.0 | 5.0 | 0.00 | 0.32 | 0.08 | 75 | 1007.2 |
| 20260905090807 | 53 | 314 | 2.0 | 7.0 | 0.00 | 0.32 | 0.08 | 75 | 1007.3 |
| 20260905085807 | 54 | 44 | 2.0 | 6.0 | 0.00 | 0.32 | 0.08 | 75 | 1007.3 |
| 20260905085307 | 54 | 246 | 3.0 | 7.0 | 0.00 | 0.32 | 0.08 | 74 | 1007.2 |
| 20260905084308 | 54 | 226 | 3.0 | 10.0 | 0.00 | 0.32 | 0.08 | 74 | 1007.0 |
| 20260905083806 | 54 | 249 | 5.0 | 10.0 | 0.00 | 0.32 | 0.08 | 74 | 1006.8 |
| 20260905082807 | 53 | 292 | 2.0 | 8.0 | 0.00 | 0.32 | 0.08 | 79 | 1006.5 |
| 20260905082307 | 53 | 204 | 2.0 | 5.0 | 0.00 | 0.32 | 0.08 | 79 | 1006.6 |
| 20260905081306 | 53 | 250 | 1.0 | 6.0 | 0.00 | 0.32 | 0.08 | 79 | 1006.4 |
| 20260905080807 | 53 | 247 | 1.0 | 6.0 | 0.01 | 0.32 | 0.08 | 79 | 1006.1 |
| 20260905080307 | 54 | 88 | 2.0 | 6.0 | 0.01 | 0.32 | 0.08 | 79 | 1006.1 |
| 20260905075807 | 54 | 271 | 2.0 | 9.0 | 0.02 | 0.32 | 0.08 | 79 | 1005.7 |
| 20260905075307 | 54 | 113 | 4.0 | 9.0 | 0.02 | 0.32 | 0.08 | 78 | 1005.5 |
| 20260905074806 | 54 | 290 | 3.0 | 7.0 | 0.02 | 0.32 | 0.08 | 79 | 1005.3 |
| 20260905074306 | 54 | 229 | 3.0 | 12.0 | 0.02 | 0.32 | 0.08 | 81 | 1005.3 |
| 20260905073807 | 55 | 271 | 3.0 | 7.0 | 0.02 | 0.32 | 0.08 | 82 | 1005.5 |
| 20260905073306 | 55 | 273 | 3.0 | 9.0 | 0.02 | 0.32 | 0.08 | 83 | 1005.4 |
| 20260905072306 | 55 | 265 | 3.0 | 9.0 | 0.07 | 0.32 | 0.08 | 83 | 1005.8 |
| 20260905071807 | 55 | 336 | 2.0 | 8.0 | 0.07 | 0.32 | 0.08 | 82 | 1006.2 |
| 20260905071306 | 55 | 313 | 3.0 | 12.0 | 0.07 | 0.32 | 0.08 | 81 | 1006.0 |
| 20260905070807 | 55 | 315 | 5.0 | 12.0 | 0.06 | 0.31 | 0.07 | 81 | 1005.8 |
| 20260905070306 | 55 | 227 | 2.0 | 9.0 | 0.06 | 0.31 | 0.07 | 85 | 1005.7 |
| 20260905065807 | 55 | 291 | 3.0 | 7.0 | 0.05 | 0.30 | 0.06 | 86 | 1005.5 |
| 20260905065307 | 55 | 266 | 3.0 | 7.0 | 0.05 | 0.30 | 0.06 | 86 | 1005.4 |
| 20260905064808 | 55 | 291 | 3.0 | 9.0 | 0.05 | 0.30 | 0.06 | 86 | 1005.4 |
| 20260905064307 | 55 | 227 | 5.0 | 10.0 | 0.05 | 0.30 | 0.06 | 85 | 1005.3 |
| 20260905063806 | 55 | 289 | 5.0 | 12.0 | 0.05 | 0.30 | 0.06 | 85 | 1005.3 |
| 20260905063307 | 57 | 269 | 5.0 | 13.0 | 0.05 | 0.30 | 0.06 | 80 | 1005.5 |
| 20260905062807 | 60 | 228 | 7.0 | 13.0 | 0.00 | 0.26 | 0.01 | 69 | 1005.2 |
| 20260905062307 | 62 | 246 | 3.0 | 7.0 | 0.00 | 0.26 | 0.01 | 63 | 1004.5 |
| 20260905061806 | 63 | 335 | 3.0 | 7.0 | 0.00 | 0.26 | 0.01 | 57 | 1004.2 |
| 20260905061306 | 64 | 250 | 3.0 | 9.0 | 0.00 | 0.26 | 0.01 | 53 | 1004.1 |
| 20260905060806 | 65 | 338 | 5.0 | 8.0 | 0.00 | 0.26 | 0.01 | 51 | 1004.3 |
| 20260905060307 | 65 | 249 | 3.0 | 10.0 | 0.00 | 0.26 | 0.01 | 52 | 1004.0 |
| 20260905055806 | 66 | 337 | 3.0 | 9.0 | 0.00 | 0.26 | 0.01 | 51 | 1004.2 |
| 20260905054808 | 65 | 340 | 3.0 | 10.0 | 0.00 | 0.26 | 0.01 | 52 | 1004.2 |
| 20260905054306 | 65 | 89 | 3.0 | 9.0 | 0.00 | 0.26 | 0.01 | 52 | 1004.3 |
| 20260905053806 | 65 | 336 | 3.0 | 8.0 | 0.00 | 0.26 | 0.01 | 51 | 1004.1 |
| 20260905053306 | 65 | 335 | 3.0 | 8.0 | 0.00 | 0.26 | 0.01 | 53 | 1004.0 |
| 20260905052806 | 64 | 19 | 3.0 | 8.0 | 0.00 | 0.26 | 0.01 | 55 | 1004.2 |
| 20260905052307 | 63 | 205 | 4.0 | 8.0 | 0.00 | 0.26 | 0.01 | 59 | 1004.1 |
| 20260905051806 | 62 | 317 | 3.0 | 15.0 | 0.00 | 0.26 | 0.01 | 64 | 1004.3 |
| 20260905050807 | 65 | 226 | 6.0 | 13.0 | 0.00 | 0.26 | 0.01 | 47 | 1003.9 |
| 20260905050307 | 66 | 312 | 5.0 | 10.0 | 0.00 | 0.26 | 0.01 | 46 | 1003.5 |
| 20260905045806 | 67 | 317 | 5.0 | 13.0 | 0.00 | 0.26 | 0.01 | 45 | 1003.5 |
| 20260905044806 | 67 | 313 | 3.0 | 10.0 | 0.00 | 0.26 | 0.01 | 43 | 1003.2 |
| 20260905044307 | 67 | 319 | 3.0 | 12.0 | 0.00 | 0.26 | 0.01 | 43 | 1003.1 |
| 20260905043807 | 67 | 289 | 5.0 | 12.0 | 0.00 | 0.26 | 0.01 | 43 | 1003.3 |
| 20260905043307 | 67 | 250 | 5.0 | 14.0 | 0.00 | 0.26 | 0.01 | 44 | 1003.1 |
| 20260905042806 | 68 | 268 | 5.0 | 9.0 | 0.00 | 0.26 | 0.01 | 43 | 1003.2 |
| 20260905042307 | 68 | 311 | 4.0 | 9.0 | 0.00 | 0.26 | 0.01 | 43 | 1003.1 |
| 20260905041807 | 67 | 229 | 5.0 | 13.0 | 0.00 | 0.26 | 0.01 | 43 | 1003.0 |
| 20260905041308 | 67 | 204 | 3.0 | 15.0 | 0.00 | 0.26 | 0.01 | 44 | 1003.1 |
| 20260905040806 | 67 | 3 | 6.0 | 16.0 | 0.00 | 0.26 | 0.01 | 43 | 1003.0 |
| 20260905035807 | 67 | 114 | 6.0 | 12.0 | 0.00 | 0.26 | 0.01 | 44 | 1003.0 |
| 20260905035309 | 67 | 202 | 5.0 | 14.0 | 0.00 | 0.26 | 0.01 | 44 | 1003.2 |
| 20260905034806 | 66 | 357 | 7.0 | 16.0 | 0.00 | 0.26 | 0.01 | 44 | 1003.3 |
| 20260905034307 | 66 | 269 | 8.0 | 16.0 | 0.00 | 0.26 | 0.01 | 45 | 1003.4 |
| 20260905033808 | 67 | 248 | 7.0 | 14.0 | 0.00 | 0.26 | 0.01 | 43 | 1003.2 |
| 20260905033306 | 66 | 0 | 6.0 | 15.0 | 0.00 | 0.26 | 0.01 | 44 | 1003.3 |
| 20260905032807 | 66 | 271 | 7.0 | 17.0 | 0.00 | 0.26 | 0.01 | 45 | 1003.5 |
| 20260905032307 | 68 | 270 | 7.0 | 17.0 | 0.00 | 0.26 | 0.01 | 47 | 1003.6 |
| 20260905031806 | 68 | 315 | 7.0 | 17.0 | 0.00 | 0.26 | 0.01 | 46 | 1003.4 |
| 20260905031306 | 68 | 267 | 5.0 | 10.0 | 0.00 | 0.26 | 0.01 | 51 | 1003.7 |
| 20260905030808 | 67 | 248 | 3.0 | 10.0 | 0.00 | 0.26 | 0.01 | 52 | 1003.6 |
| 20260905030306 | 67 | 273 | 4.0 | 8.0 | 0.01 | 0.26 | 0.01 | 53 | 1003.7 |
| 20260905025308 | 64 | 315 | 4.0 | 17.0 | 0.01 | 0.26 | 0.01 | 60 | 1003.8 |
| 20260905024806 | 65 | 291 | 4.0 | 10.0 | 0.01 | 0.26 | 0.01 | 59 | 1004.0 |
| 20260905024307 | 64 | 112 | 3.0 | 12.0 | 0.01 | 0.26 | 0.01 | 60 | 1003.9 |
| 20260905023308 | 64 | 292 | 4.0 | 13.0 | 0.01 | 0.26 | 0.01 | 60 | 1004.2 |
| 20260905022806 | 63 | 270 | 5.0 | 13.0 | 0.01 | 0.26 | 0.01 | 61 | 1004.1 |
| 20260905022307 | 62 | 226 | 2.0 | 13.0 | 0.01 | 0.26 | 0.01 | 65 | 1003.9 |
| 20260905021806 | 61 | 229 | 6.0 | 15.0 | 0.01 | 0.26 | 0.01 | 66 | 1004.1 |
| 20260905021307 | 59 | 312 | 5.0 | 14.0 | 0.01 | 0.26 | 0.01 | 70 | 1003.9 |
| 20260905020807 | 58 | 71 | 4.0 | 13.0 | 0.01 | 0.26 | 0.01 | 68 | 1004.0 |
| 20260905020307 | 58 | 293 | 3.0 | 15.0 | 0.00 | 0.25 | 0.00 | 69 | 1004.3 |
| 20260905015806 | 61 | 314 | 8.0 | 23.0 | 0.00 | 0.25 | 0.00 | 66 | 1004.4 |
| 20260905015307 | 67 | 267 | 10.0 | 22.0 | 0.00 | 0.25 | 0.00 | 54 | 1004.5 |
| 20260905014806 | 69 | 250 | 6.0 | 16.0 | 0.00 | 0.25 | 0.00 | 48 | 1003.7 |
| 20260905014308 | 68 | 250 | 7.0 | 13.0 | 0.00 | 0.25 | 0.00 | 48 | 1003.8 |
| 20260905013808 | 68 | 204 | 6.0 | 14.0 | 0.00 | 0.25 | 0.00 | 49 | 1003.6 |
| 20260905013306 | 68 | 250 | 6.0 | 15.0 | 0.00 | 0.25 | 0.00 | 50 | 1003.6 |
| 20260905012807 | 67 | 250 | 7.0 | 16.0 | 0.00 | 0.25 | 0.00 | 52 | 1003.4 |
| 20260905012306 | 67 | 24 | 6.0 | 15.0 | 0.00 | 0.25 | 0.00 | 51 | 1003.3 |
| 20260905011807 | 67 | 288 | 6.0 | 14.0 | 0.00 | 0.25 | 0.00 | 53 | 1003.7 |
| 20260905011307 | 67 | 314 | 6.0 | 16.0 | 0.00 | 0.25 | 0.00 | 53 | 1003.6 |
| 20260905010807 | 67 | 248 | 5.0 | 13.0 | 0.00 | 0.25 | 0.00 | 54 | 1003.6 |
| 20260905010308 | 66 | 207 | 5.0 | 13.0 | 0.00 | 0.25 | 0.00 | 55 | 1003.4 |
| 20260905005307 | 66 | 269 | 3.0 | 12.0 | 0.00 | 0.25 | 0.00 | 55 | 1003.6 |
| 20260905004308 | 65 | 202 | 6.0 | 14.0 | 0.00 | 0.25 | 0.00 | 56 | 1003.5 |
| 20260905003806 | 65 | 93 | 5.0 | 15.0 | 0.00 | 0.25 | 0.00 | 58 | 1003.8 |
| 20260905003307 | 64 | 314 | 4.0 | 12.0 | 0.00 | 0.25 | 0.00 | 60 | 1003.6 |
| 20260905002806 | 64 | 19 | 6.0 | 12.0 | 0.00 | 0.25 | 0.00 | 61 | 1004.0 |
| 20260905002306 | 64 | 185 | 3.0 | 9.0 | 0.00 | 0.25 | 0.00 | 63 | 1004.0 |
| 20260905001806 | 64 | 269 | 4.0 | 8.0 | 0.00 | 0.25 | 0.00 | 65 | 1004.1 |
| 20260905001306 | 64 | 315 | 2.0 | 7.0 | 0.00 | 0.25 | 0.00 | 67 | 1004.1 |
| 20260904235806 | 63 | 316 | 2.0 | 8.0 | 0.00 | 0.25 | 0.00 | 70 | 1004.0 |
| 20260904235308 | 63 | 89 | 5.0 | 8.0 | 0.00 | 0.25 | 0.00 | 70 | 1004.0 |
| 20260904234306 | 62 | 317 | 1.0 | 8.0 | 0.00 | 0.25 | 0.00 | 75 | 1003.9 |
| 20260904233806 | 61 | 114 | 3.0 | 6.0 | 0.00 | 0.25 | 0.00 | 76 | 1004.0 |
| 20260904233307 | 61 | 356 | 2.0 | 6.0 | 0.00 | 0.25 | 0.00 | 78 | 1004.1 |
| 20260904232307 | 60 | 358 | 2.0 | 6.0 | 0.00 | 0.25 | 0.00 | 79 | 1004.1 |
| 20260904231806 | 60 | 272 | 2.0 | 5.0 | 0.00 | 0.25 | 0.00 | 79 | 1004.0 |
| 20260904231306 | 60 | 0 | 2.0 | 8.0 | 0.00 | 0.25 | 0.00 | 79 | 1004.0 |
| 20260904230806 | 60 | 315 | 5.0 | 8.0 | 0.00 | 0.25 | 0.00 | 79 | 1004.1 |
| 20260904230307 | 59 | 294 | 1.0 | 10.0 | 0.00 | 0.25 | 0.00 | 81 | 1004.3 |
| 20260904225807 | 59 | 338 | 2.0 | 7.0 | 0.00 | 0.25 | 0.25 | 82 | 1004.2 |
| 20260904225307 | 59 | 317 | 3.0 | 7.0 | 0.00 | 0.25 | 0.25 | 82 | 1004.4 |
| 20260904224806 | 58 | 85 | 3.0 | 10.0 | 0.00 | 0.25 | 0.25 | 83 | 1004.4 |
| 20260904224307 | 58 | 339 | 3.0 | 10.0 | 0.00 | 0.25 | 0.25 | 84 | 1004.5 |
| 20260904223806 | 58 | 338 | 3.0 | 5.0 | 0.00 | 0.25 | 0.25 | 84 | 1004.2 |
| 20260904223308 | 58 | 338 | 1.0 | 8.0 | 0.00 | 0.25 | 0.25 | 84 | 1004.3 |
| 20260904222806 | 58 | 21 | 2.0 | 10.0 | 0.00 | 0.25 | 0.25 | 84 | 1004.7 |
| 20260904222308 | 58 | 0 | 4.0 | 10.0 | 0.00 | 0.25 | 0.25 | 83 | 1004.4 |
| 20260904221807 | 58 | 294 | 3.0 | 12.0 | 0.00 | 0.25 | 0.25 | 84 | 1004.3 |
| 20260904221306 | 57 | 293 | 4.0 | 9.0 | 0.00 | 0.25 | 0.25 | 84 | 1004.3 |
| 20260904220807 | 57 | 339 | 5.0 | 10.0 | 0.00 | 0.25 | 0.25 | 84 | 1004.6 |
| 20260904220306 | 57 | 340 | 3.0 | 9.0 | 0.00 | 0.25 | 0.25 | 85 | 1004.4 |
| 20260904215307 | 57 | 358 | 5.0 | 8.0 | 0.00 | 0.25 | 0.25 | 85 | 1004.7 |
| 20260904214807 | 57 | 295 | 3.0 | 8.0 | 0.01 | 0.25 | 0.25 | 86 | 1004.9 |
| 20260904213807 | 57 | 274 | 2.0 | 8.0 | 0.02 | 0.25 | 0.25 | 86 | 1004.3 |
| 20260904213307 | 57 | 0 | 3.0 | 9.0 | 0.03 | 0.25 | 0.25 | 86 | 1004.4 |
| 20260904212807 | 57 | 293 | 3.0 | 10.0 | 0.03 | 0.25 | 0.25 | 86 | 1004.1 |
| 20260904212306 | 57 | 338 | 3.0 | 7.0 | 0.03 | 0.25 | 0.25 | 86 | 1004.0 |
| 20260904211807 | 57 | 21 | 3.0 | 12.0 | 0.03 | 0.25 | 0.25 | 86 | 1004.0 |
| 20260904211306 | 56 | 317 | 5.0 | 12.0 | 0.03 | 0.25 | 0.25 | 87 | 1003.9 |
| 20260904210806 | 56 | 43 | 3.0 | 12.0 | 0.04 | 0.25 | 0.25 | 87 | 1003.8 |
| 20260904205806 | 57 | 320 | 5.0 | 10.0 | 0.04 | 0.25 | 0.25 | 87 | 1004.1 |
| 20260904205306 | 57 | 88 | 6.0 | 15.0 | 0.04 | 0.25 | 0.25 | 87 | 1004.1 |
| 20260904204806 | 57 | 273 | 7.0 | 13.0 | 0.04 | 0.24 | 0.24 | 86 | 1004.5 |
| 20260904204307 | 57 | 19 | 6.0 | 12.0 | 0.03 | 0.23 | 0.23 | 86 | 1004.7 |
| 20260904203806 | 57 | 341 | 6.0 | 13.0 | 0.03 | 0.23 | 0.23 | 86 | 1005.1 |
| 20260904203307 | 57 | 46 | 5.0 | 13.0 | 0.02 | 0.22 | 0.22 | 86 | 1005.6 |
| 20260904202807 | 57 | 292 | 3.0 | 12.0 | 0.02 | 0.22 | 0.22 | 86 | 1005.4 |
| 20260904202307 | 57 | 271 | 5.0 | 12.0 | 0.02 | 0.22 | 0.22 | 86 | 1005.7 |
| 20260904201806 | 57 | 344 | 4.0 | 12.0 | 0.02 | 0.22 | 0.22 | 86 | 1005.7 |
| 20260904200807 | 58 | 288 | 3.0 | 9.0 | 0.01 | 0.21 | 0.21 | 85 | 1005.9 |
| 20260904200306 | 57 | 0 | 3.0 | 10.0 | 0.01 | 0.21 | 0.21 | 85 | 1005.9 |
| 20260904195307 | 57 | 333 | 3.0 | 9.0 | 0.01 | 0.21 | 0.21 | 85 | 1005.7 |
| 20260904194806 | 57 | 42 | 3.0 | 12.0 | 0.00 | 0.20 | 0.20 | 84 | 1005.8 |
| 20260904194306 | 57 | 340 | 5.0 | 10.0 | 0.00 | 0.20 | 0.20 | 84 | 1005.5 |
| 20260904193807 | 57 | 2 | 3.0 | 8.0 | 0.00 | 0.20 | 0.20 | 84 | 1005.7 |
| 20260904193307 | 57 | 250 | 4.0 | 8.0 | 0.00 | 0.20 | 0.20 | 85 | 1005.5 |
| 20260904192806 | 57 | 90 | 3.0 | 10.0 | 0.00 | 0.20 | 0.20 | 85 | 1005.4 |
| 20260904192306 | 57 | 316 | 3.0 | 7.0 | 0.00 | 0.20 | 0.20 | 85 | 1005.5 |
| 20260904191806 | 57 | 293 | 2.0 | 8.0 | 0.00 | 0.20 | 0.20 | 86 | 1005.8 |
| 20260904191307 | 57 | 341 | 4.0 | 8.0 | 0.00 | 0.20 | 0.20 | 86 | 1005.9 |
| 20260904190807 | 57 | 21 | 3.0 | 7.0 | 0.01 | 0.20 | 0.20 | 86 | 1006.2 |
| 20260904190307 | 57 | 248 | 2.0 | 7.0 | 0.03 | 0.20 | 0.20 | 85 | 1006.5 |
| 20260904185808 | 57 | 358 | 2.0 | 10.0 | 0.04 | 0.20 | 0.20 | 85 | 1006.6 |
| 20260904185306 | 57 | 66 | 3.0 | 8.0 | 0.06 | 0.20 | 0.20 | 85 | 1006.3 |
| 20260904184807 | 57 | 226 | 3.0 | 13.0 | 0.06 | 0.20 | 0.20 | 85 | 1006.3 |
| 20260904184307 | 57 | 43 | 3.0 | 9.0 | 0.06 | 0.20 | 0.20 | 86 | 1006.2 |
| 20260904183807 | 57 | 22 | 6.0 | 8.0 | 0.06 | 0.20 | 0.20 | 86 | 1006.4 |
| 20260904183307 | 57 | 317 | 3.0 | 9.0 | 0.06 | 0.20 | 0.20 | 86 | 1006.5 |
| 20260904182807 | 57 | 20 | 5.0 | 13.0 | 0.06 | 0.20 | 0.20 | 87 | 1006.3 |